[[{"header":{"parameterUnit":"m.s-1","parameterCategory":1,"la1":30.2991,"la2":30.254,"lo1":-89.0895,"lo2":-89.0444,"dy":0.0017,"dx":0.0017,"nx":28,"ny":28,"refTime":"2024-03-13T03:00:00:Z","depth":0,"parameterNumber":2,"parameterNumberName":"U-component_of_WINDS"},"data":[0,0,0,0,0,0,0,0,0,0,0,0,0,0,0,0,0,0,0,0,0,0,0,0,0,0,0,0,0,0,0,0,0,0,0,0,0,0,0,0,0,0,0,0,0,0,0,0,0,0,0,0,0,0,0,0,0,0,-1.0073,-1.0072,0,-1.0032,-1.0032,-1.0031,-0.9978,-0.9977,-0.9976,-0.9976,-0.9934,-0.9933,-0.9933,0,0,0,0,0,0,0,0,0,0,0,0,0,-1.0106,-1.0105,-1.0073,-1.0072,-1.0072,-1.0032,-1.0032,-1.0031,-0.9978,-0.9977,-0.9976,-0.9975,-0.9934,-0.9933,-0.9933,0,0,0,0,0,0,0,0,0,0,0,0,0,-1.0081,-1.0105,-1.0073,-1.0041,-1.0037,-1.0032,-1.0032,-1.0031,-0.9979,-0.9977,-0.9976,-0.9975,-0.9934,-0.9934,-0.9933,-0.9956,0,0,-0.9932,-0.9931,0,0,0,0,0,0,0,0,-1.0082,-1.008,-1.0046,-1.0043,-1.0039,-1.0009,-1.0028,-1.0006,-0.9979,-1.0001,-0.9976,-0.9974,-0.996,-0.9957,-0.9952,-0.9954,-0.9952,-0.9932,-0.9931,-0.9931,-0.9931,0,0,0,0,0,0,0,-1.0084,-1.0081,-1.0057,-1.0045,-1.0041,-1.0029,-1.0024,-1.0024,-0.9988,-0.9999,-0.9995,-0.9991,-0.9958,-0.9953,-0.9951,-0.9952,-0.9932,-0.9931,-0.9931,-0.9931,-0.9973,-0.9975,0,0,0,0,0,0,-1.0091,-1.0083,-1.0058,-1.0055,-1.0058,-1.0029,-1.0024,-1.002,-0.9988,-0.9982,-0.9992,-0.9989,-0.9954,-0.9952,-0.9949,-0.9975,-0.9931,-0.9931,-0.993,-0.9972,-0.9973,-0.9975,0,0,0,0,0,0,-1.0092,-1.0089,-1.006,-1.0068,-1.0063,-1.003,-1.0026,-1.002,-1.0015,-0.9983,-0.9976,-0.9994,-0.9953,-0.995,-0.9955,-0.9973,-0.993,-0.993,-0.997,-0.9972,-0.9974,-1.0027,0,0,0,0,0,0,-1.0093,-1.009,-1.0097,-1.0069,-1.0063,-1.0066,-1.0027,-1.002,-1.0014,-1.0009,-0.9983,-0.9977,-0.9952,-0.9956,-0.9955,-0.9972,-0.993,-0.9968,-0.9971,-0.9974,-1.0024,-1.0031,-1.0037,0,0,0,0,0,-1.0094,-1.0113,-1.0098,-1.0095,-1.0072,-1.0067,-1.0064,-1.0035,-1.0016,-1.0024,-1.0004,-0.9978,-0.9972,-0.9957,-0.9955,-0.9972,-0.9967,-0.997,-0.9973,-1.0021,-1.003,-1.0037,0,0,0,0,0,0,-1.0144,-1.0109,-1.0092,-1.0102,-1.0088,-1.0058,-1.0067,-1.0045,-1.0036,-1.0032,-0.9996,-0.9991,-1.0001,-0.9987,-0.9972,-0.9994,-0.9966,-0.9969,-1.0003,-1.0011,-1.0017,-1.002,-0.9929,0,0,0,0,0,-1.0157,-1.0155,-1.0125,-1.0137,-1.0131,-1.0101,-1.0097,-1.0077,-1.006,-1.0054,-1.0034,-1.002,-1.0015,-1.0012,-1.0005,-1.0022,-1.0016,-1.0033,-1.004,-1.0045,-1.0048,-1.0058,-1.0065,-0.9985,-0.9985,-0.9985,0,0,-1.0182,-1.0163,-1.0164,-1.0147,-1.0133,-1.0133,-1.0096,-1.0097,-1.0096,-1.0054,-1.0058,-1.0044,-1.0025,-1.0037,-1.0041,-1.0026,-1.0069,-1.005,-1.0054,-1.0054,-1.0062,-1.0069,-1.0076,-0.9988,-0.9987,-0.9987,0,0,-1.0228,-1.0213,-1.0223,-1.0211,-1.0191,-1.0172,-1.0174,-1.0148,-1.0137,-1.0141,-1.011,-1.0109,-1.0101,-1.009,-1.0083,-1.0128,-1.0104,-1.0127,-1.0162,-1.0172,-1.0178,-1.0183,-1.02,-1.0207,-1.013,-1.013,-1.013,0,-1.0262,-1.026,-1.023,-1.0234,-1.0228,-1.0191,-1.0201,-1.019,-1.017,-1.0167,-1.0151,-1.0141,-1.0126,-1.0135,-1.0147,-1.0142,-1.0145,-1.013,-1.0179,-1.0184,-1.0189,-1.0205,-1.0211,-1.0133,-1.0133,-1.0133,-1.0132,0,-1.0304,-1.0303,-1.0313,-1.0295,-1.0291,-1.0297,-1.0269,-1.0268,-1.0249,-1.0231,-1.0237,-1.0218,-1.0208,-1.0209,-1.0189,-1.0216,-1.0207,-1.0186,-1.0156,-1.02,-1.0215,-1.022,-1.0138,-1.0137,-1.0136,-1.0135,0,0,-1.0378,-1.0346,-1.035,-1.0342,-1.032,-1.0319,-1.0325,-1.0316,-1.0316,-1.0304,-1.0308,-1.0304,-1.0285,-1.0277,-1.0256,-1.0265,-1.0304,-1.0242,-1.0241,-1.0255,-1.0334,-1.035,-1.0358,-1.0288,-1.0289,-1.029,-1.0335,0,-1.042,-1.0428,-1.0402,-1.0417,-1.0417,-1.0383,-1.0389,-1.0376,-1.036,-1.0359,-1.0341,-1.0339,-1.0313,-1.0309,-1.0316,-1.0297,-1.0319,-1.0294,-1.0293,-1.0293,-1.0298,-1.0365,-1.0381,-1.0425,-1.0341,-1.0342,-1.0342,0,-1.0469,-1.0461,-1.0476,-1.0455,-1.0454,-1.0459,-1.045,-1.0448,-1.0434,-1.0422,-1.0415,-1.0392,-1.0397,-1.037,-1.0378,-1.0361,-1.036,-1.0351,-1.0352,-1.035,-1.032,-1.0365,-1.0438,-1.0445,-1.0351,-1.035,-1.0349,0,-1.0523,-1.0516,-1.0524,-1.0519,-1.0494,-1.0499,-1.0489,-1.0473,-1.047,-1.0462,-1.046,-1.0453,-1.0449,-1.0444,-1.042,-1.0402,-1.0431,-1.0401,-1.0422,-1.0423,-1.0429,-1.0429,-1.0503,-1.0428,-1.0428,-1.0428,-1.0428,0,-1.0573,-1.0583,-1.0548,-1.0554,-1.0565,-1.0537,-1.0549,-1.0536,-1.0523,-1.0525,-1.0496,-1.0499,-1.0467,-1.0467,-1.0448,-1.0458,-1.0457,-1.0448,-1.0443,-1.045,-1.0452,-1.0448,-1.0445,-1.043,-1.0429,-1.0429,-1.0429,0,-1.0634,-1.0611,-1.0618,-1.0595,-1.0589,-1.0599,-1.0579,-1.0584,-1.0567,-1.0571,-1.057,-1.0545,-1.0543,-1.0519,-1.0513,-1.05,-1.0518,-1.0507,-1.0523,-1.052,-1.0542,-1.054,-1.0616,-1.0625,-1.0545,-1.0546,-1.0547,0,-1.0667,-1.0675,-1.0653,-1.0653,-1.0644,-1.0644,-1.0641,-1.0614,-1.0612,-1.0598,-1.0605,-1.0602,-1.0597,-1.0597,-1.0578,-1.0574,-1.0563,-1.059,-1.0562,-1.057,-1.0564,-1.0564,-1.0565,-1.0595,-1.0597,-1.0597,-1.0598,0,-1.0728,-1.0717,-1.0714,-1.0708,-1.0705,-1.0699,-1.0691,-1.0693,-1.0663,-1.0663,-1.0662,-1.0659,-1.0653,-1.0651,-1.0643,-1.0633,-1.0611,-1.0607,-1.0612,-1.062,-1.0629,-1.0625,-1.0539,-1.0605,-1.0605,-1.0604,-1.0604,-1.0603,-1.0776,-1.0782,-1.0768,-1.0767,-1.0758,-1.0752,-1.0755,-1.074,-1.0739,-1.0732,-1.0716,-1.0718,-1.0706,-1.0694,-1.0686,-1.0688,-1.0674,-1.0681,-1.0682,-1.0684,-1.0689,-1.0629,-1.0686,-1.0686,-1.0686,-1.0686,-1.0685,0,-1.0837,-1.0827,-1.0825,-1.0815,-1.0815,-1.0795,-1.0785,-1.0786,-1.0788,-1.0778,-1.0776,-1.0776,-1.0774,-1.0756,-1.0752,-1.0757,-1.0747,-1.0757,-1.0756,-1.0754,-1.0701,-1.0698,-1.0765,-1.0765,-1.0765,-1.0765,-1.0765,-1.0765,-1.0868,-1.0877,-1.0865,-1.0871,-1.086,-1.0862,-1.0859,-1.0853,-1.0846,-1.0847,-1.0845,-1.0834,-1.0821,-1.0817,-1.0815,-1.081,-1.081,-1.0824,-1.0815,-1.0766,-1.0758,-1.0751,-1.0747,-1.0824,-1.0824,-1.0868,-1.0869,-1.0869]},{"header":{"parameterUnit":"m.s-1","parameterCategory":1,"la1":30.2991,"la2":30.254,"lo1":-89.0895,"lo2":-89.0444,"dy":0.0017,"dx":0.0017,"nx":28,"ny":28,"refTime":"2024-03-13T03:00:00:Z","depth":0,"parameterNumber":3,"parameterNumberName":"V-component_of_WINDS"},"data":[0,0,0,0,0,0,0,0,0,0,0,0,0,0,0,0,0,0,0,0,0,0,0,0,0,0,0,0,0,0,0,0,0,0,0,0,0,0,0,0,0,0,0,0,0,0,0,0,0,0,0,0,0,0,0,0,0,0,3.3744,3.3745,0,3.3756,3.3756,3.3756,3.3795,3.3795,3.3796,3.3797,3.3804,3.3804,3.3803,0,0,0,0,0,0,0,0,0,0,0,0,0,3.3753,3.3753,3.3744,3.3745,3.3745,3.3756,3.3756,3.3756,3.3794,3.3795,3.3796,3.3797,3.3805,3.3804,3.3803,0,0,0,0,0,0,0,0,0,0,0,0,0,3.3755,3.3753,3.3744,3.3765,3.3767,3.3756,3.3756,3.3756,3.3794,3.3795,3.3797,3.3798,3.3805,3.3804,3.3803,3.3771,0,0,3.38,3.38,0,0,0,0,0,0,0,0,3.3755,3.3755,3.3762,3.3764,3.3766,3.3775,3.3762,3.3761,3.3794,3.3784,3.3797,3.3799,3.3793,3.3793,3.3793,3.3771,3.3772,3.38,3.38,3.3799,3.3799,0,0,0,0,0,0,0,3.3755,3.3755,3.3749,3.3762,3.3765,3.3773,3.3775,3.3762,3.3781,3.3785,3.3788,3.3789,3.3795,3.3793,3.3793,3.3772,3.38,3.3799,3.3799,3.3798,3.3725,3.3724,0,0,0,0,0,0,3.3752,3.3754,3.3748,3.3749,3.3764,3.3772,3.3774,3.3771,3.3781,3.3784,3.3788,3.379,3.3794,3.3794,3.3793,3.3757,3.3799,3.3798,3.3798,3.3727,3.3725,3.3724,0,0,0,0,0,0,3.3752,3.3751,3.3748,3.3752,3.3753,3.377,3.3767,3.377,3.3769,3.3783,3.3787,3.3783,3.3795,3.3795,3.3777,3.3758,3.3798,3.3797,3.3728,3.3726,3.3724,3.3683,0,0,0,0,0,0,3.3752,3.3751,3.374,3.3752,3.3752,3.3732,3.3765,3.377,3.3768,3.3772,3.378,3.3782,3.3796,3.3778,3.3776,3.3757,3.3796,3.373,3.3727,3.3725,3.3686,3.368,3.3675,0,0,0,0,0,3.3752,3.3727,3.3739,3.3738,3.3739,3.3731,3.3731,3.3749,3.3766,3.3755,3.3764,3.3782,3.376,3.3776,3.3774,3.3754,3.3731,3.3728,3.3725,3.3689,3.3681,3.3675,0,0,0,0,0,0,3.371,3.3729,3.3742,3.372,3.3724,3.3737,3.3723,3.374,3.3737,3.3741,3.3762,3.3763,3.3742,3.3747,3.3763,3.3724,3.3749,3.3745,3.3722,3.3715,3.3709,3.3708,3.3795,0,0,0,0,0,3.3698,3.3691,3.3708,3.3686,3.3688,3.3705,3.3702,3.3716,3.372,3.3721,3.3729,3.3731,3.3725,3.372,3.3715,3.3688,3.369,3.3673,3.3668,3.3663,3.3659,3.3645,3.3638,3.3713,3.3713,3.3713,0,0,3.3673,3.3683,3.3677,3.3678,3.3682,3.3674,3.3706,3.3695,3.3689,3.3719,3.3703,3.3709,3.3713,3.369,3.368,3.3693,3.3639,3.3659,3.3655,3.3654,3.3641,3.3634,3.3628,3.3711,3.3712,3.3712,0,0,3.3624,3.363,3.3614,3.3618,3.3625,3.3637,3.3633,3.3644,3.365,3.3635,3.3657,3.365,3.3638,3.364,3.364,3.3593,3.3609,3.359,3.3559,3.3546,3.354,3.3535,3.3518,3.3511,3.3587,3.3587,3.3587,0,3.3591,3.3581,3.3602,3.3591,3.3591,3.362,3.3602,3.3605,3.3609,3.3608,3.3623,3.361,3.3615,3.3593,3.3582,3.358,3.3576,3.3589,3.3539,3.3534,3.353,3.3514,3.3507,3.3584,3.3585,3.3585,3.3585,0,3.3541,3.3533,3.3519,3.3524,3.3522,3.3508,3.3527,3.3522,3.3536,3.3546,3.353,3.3537,3.3534,3.353,3.3543,3.3511,3.3518,3.3536,3.3561,3.352,3.3505,3.3499,3.3581,3.3582,3.3583,3.3583,0,0,3.3464,3.3483,3.3477,3.348,3.3491,3.3485,3.3471,3.3471,3.3466,3.3468,3.3458,3.3448,3.3465,3.3464,3.3478,3.3466,3.3428,3.3485,3.3485,3.3474,3.3393,3.338,3.3372,3.344,3.3439,3.3438,3.3393,0,3.3417,3.3397,3.3416,3.3392,3.3385,3.3413,3.3402,3.3406,3.3416,3.3411,3.3421,3.3414,3.3436,3.3436,3.3425,3.3435,3.3412,3.3438,3.3429,3.3428,3.3427,3.3365,3.3351,3.3308,3.3387,3.3386,3.3385,0,3.3359,3.3361,3.3336,3.335,3.3347,3.3337,3.3338,3.3333,3.3339,3.3347,3.3347,3.3364,3.3351,3.3377,3.3359,3.3377,3.3374,3.3378,3.3377,3.3376,3.3404,3.3362,3.3294,3.3288,3.3377,3.3377,3.3378,0,3.3305,3.3301,3.3286,3.3288,3.3303,3.3295,3.3301,3.3308,3.3307,3.3307,3.3306,3.3305,3.3304,3.3302,3.3318,3.3335,3.3299,3.3325,3.3304,3.3304,3.3295,3.3295,3.3225,3.3293,3.3293,3.3293,3.3294,0,3.3251,3.3235,3.3263,3.3253,3.3236,3.3259,3.3241,3.3249,3.3256,3.3248,3.3271,3.3263,3.3285,3.3279,3.3292,3.3276,3.3275,3.328,3.3284,3.3278,3.3277,3.3276,3.328,3.3292,3.3292,3.3292,3.3293,0,3.3188,3.3206,3.3191,3.3207,3.3211,3.3198,3.3211,3.3203,3.3214,3.3204,3.3203,3.3221,3.3215,3.3231,3.3228,3.3236,3.3213,3.3221,3.3211,3.3214,3.3192,3.3194,3.3119,3.311,3.3184,3.3183,3.3182,0,3.3151,3.314,3.3155,3.3153,3.3158,3.3153,3.3152,3.3174,3.3171,3.3178,3.3169,3.3166,3.3164,3.3154,3.3166,3.3163,3.3171,3.3145,3.3171,3.3166,3.3171,3.3172,3.3171,3.314,3.3139,3.3138,3.3138,0,3.3085,3.3095,3.3094,3.3096,3.3094,3.3096,3.31,3.3096,3.3119,3.3116,3.3111,3.311,3.3108,3.3104,3.3105,3.3109,3.3127,3.313,3.3125,3.3119,3.3113,3.3116,3.3197,3.3131,3.3132,3.3132,3.3132,3.3133,3.3035,3.3026,3.3036,3.3034,3.3039,3.3042,3.3036,3.3047,3.3044,3.3045,3.3058,3.3051,3.3058,3.306,3.3063,3.3058,3.307,3.3062,3.306,3.3058,3.3055,3.3115,3.3058,3.3058,3.3058,3.3058,3.3059,0,3.297,3.2978,3.2976,3.2981,3.2979,3.2998,3.3003,3.3,3.2994,3.3,3.2999,3.2993,3.299,3.3003,3.3001,3.2994,3.3002,3.2993,3.2994,3.2994,3.3044,3.3049,3.2987,3.2987,3.2987,3.2987,3.2987,3.2987,3.2936,3.2923,3.2934,3.2924,3.2932,3.2927,3.2928,3.2931,3.2936,3.2929,3.2928,3.2936,3.2944,3.2944,3.2942,3.2946,3.2944,3.2932,3.2938,3.2984,3.2991,3.2998,3.3002,3.2931,3.2931,3.2889,3.2888,3.2888]}]]